Find USA 120

NORAD ID: 23907 Int'l Des: 1996-029 Owner: NROC/NRL Country: US operational
LEO

实时位置

正在加载3D地球...

关于 USA 120

正在加载描述...

即将过境

Passes for default location (London). Set your location on the main map for personalized predictions.

高度历史

Loading altitude history...

两行轨道根数

1 23907U 96029B 26106.40648740 .00001378 00000-0 24561-3 0 9995
2 23907 63.3225 354.3984 0846091 48.8922 318.2083 13.46239829 95333
Epoch: Apr 16, 2026 • Age: 17 hours

当前状态

高度 1144.0 km
速度 7.26 km/s
星下点 27.65°N, 84.66°W
发射日期 May 12, 1996
运行时间 29.9 years
类型 military

技术详情

分类 Payload
质量 400.00 kg
干质量 400.00 kg
总质量 400.00 kg
长度 1.00 m
直径 1.00 m
跨度 10.00 m
形状 Box + Ant
制造商 NRL
平台类型 NOSS B SSU
阶段状态 In Orbit
所有者/国家 NROC/NRL/US

Most Searched